#timestamp,LO_Frequency,Hit,StdDev 
1506060015.6,286046991.0,N
1506060035.5,286046990.5,N
1506060055.3,286046992.1,N
1506060075.1,286046994.7,N
1506060095.9,286046995.9,N
1506060115.7,286046995.3,N
1506060135.5,286046996.8,N
1506060155.4,286046995.0,N
1506060175.2,286046997.4,N
1506060195.0,286046999.5,N
1506060195.9,286046999.5,N
1506060215.8,286046999.5,N
1506060235.6,286046996.9,N
1506060255.4,286046996.9,N
1506060275.3,286046997.4,N
1506060295.1,286046997.6,N
1506060296.0,286046997.6,N
1506060315.8,286046998.0,N
1506060335.6,286046998.9,N
1506060355.5,286047003.9,N
1506060375.3,286047005.9,N
1506060395.1,286047004.0,N
1506060415.9,286047002.5,N
1506060435.7,286046999.8,N
1506060455.5,286047002.7,N
1506060475.4,286047003.3,N
1506060495.2,286047004.6,N
1506060515.0,286047005.9,N
1506060515.9,286047005.9,N
1506060535.8,286047003.1,N
1506060555.6,286047005.5,N
1506060575.4,286047009.2,N
1506060595.3,286047006.8,N
1506060615.1,286046999.7,N
1506060616.0,286046999.7,N
1506060635.8,286047002.1,N
1506060655.7,286047007.3,N
1506060675.5,286047011.7,Y
1506060695.3,286047013.6,P
1506060715.2,286047015.0,N
1506060735.9,286047018.2,P
1506060755.7,286047018.6,N
1506060775.6,286047021.4,Y
1506060795.4,286047005.1,P
1506060815.2,286047007.1,N
1506060835.1,286047008.7,N
1506060836.0,286047008.7,N
1506060855.8,286047013.5,Y
1506060875.6,286047003.5,P
1506060895.5,286047008.9,P
1506060915.3,286047007.0,N
1506060935.1,286047008.9,Y
1506060955.9,286047000.2,P
1506060975.7,286047001.7,N
1506060995.5,286047002.2,N
1506061015.4,286047003.5,N
1506061035.2,286047008.4,Y
1506061055.0,286047005.9,P
1506061055.9,286047005.9,P
1506061075.8,286047003.7,N
1506061095.6,286047005.9,Y
1506061115.4,286046997.3,P
1506061135.3,286046996.2,N
1506061155.1,286046991.0,N
1506061156.0,286046991.0,N
1506061175.8,286046992.4,N
1506061195.7,286046992.6,N
1506061215.5,286046991.5,N
1506061235.3,286046991.1,N
1506061255.1,286046992.4,N
1506061275.9,286046995.8,N
1506061295.7,286046995.4,N
1506061315.5,286046999.4,N
1506061335.4,286047000.6,N
1506061355.2,286046998.1,N
1506061375.0,286047001.0,N
1506061375.9,286047001.0,N
1506061395.8,286046994.0,N
1506061415.6,286046996.1,N
1506061435.4,286046993.5,N
1506061455.3,286046993.2,N
1506061475.1,286046993.3,N
1506061476.0,286046993.3,N
1506061495.8,286046998.3,N
1506061515.7,286046997.7,N
1506061535.5,286046995.9,N
1506061555.3,286046991.4,N
1506061575.2,286046988.6,Y
1506061595.9,286046993.4,P
1506061615.7,286046993.4,P
1506061635.6,286046994.2,P
1506061655.4,286046997.5,N
1506061675.2,286046997.3,N
1506061695.1,286046990.1,Y
1506061696.0,286046990.1,P
1506061715.8,286046998.8,N
1506061735.6,286047000.0,N
1506061755.5,286047001.0,N
1506061775.3,286047003.8,N
1506061795.1,286046998.4,N
1506061815.9,286047001.2,N
1506061835.7,286046999.3,N
1506061855.5,286047000.3,N
1506061875.3,286047000.2,N
1506061895.2,286046998.3,N
1506061915.0,286046998.5,N
1506061915.9,286046998.5,N
1506061935.7,286046996.5,N
1506061955.6,286046997.1,N
1506061975.4,286046997.9,N
1506061995.2,286046997.1,N
1506062015.1,286046994.9,N
1506062016.0,286046994.9,N
1506062035.8,286046997.1,N
1506062055.6,286046997.1,N
1506062075.5,286046995.5,N
1506062095.3,286046998.1,N
1506062115.1,286047000.6,N
1506062135.9,286047002.6,N
1506062155.7,286047002.8,N
1506062175.5,286047000.4,N
1506062195.3,286046999.6,N
1506062215.2,286046994.1,N
1506062235.0,286046995.2,N
1506062235.9,286046995.2,N
1506062255.7,286046997.8,N
1506062275.6,286046995.5,N
1506062295.4,286046993.8,N
1506062315.2,286046995.2,N
1506062335.1,286046998.8,N
1506062336.0,286046998.8,N
1506062355.8,286047001.1,N
1506062375.6,286047000.1,N
1506062395.5,286046998.3,N
1506062415.3,286047000.6,N
1506062435.1,286047001.5,N
1506062455.9,286047001.6,N
1506062475.7,286047002.7,N
1506062495.5,286047000.0,N
1506062515.4,286046999.4,N
1506062535.2,286046999.6,N
1506062555.0,286046995.6,N
1506062555.9,286046995.6,N
1506062575.8,286047001.2,N
1506062595.6,286046998.7,N
1506062615.4,286046996.5,N
1506062635.2,286047000.5,N
1506062655.1,286046997.1,N
1506062656.0,286046997.1,N
1506062675.8,286046998.3,N
1506062695.6,286047000.5,N
1506062715.5,286046998.0,N
1506062735.3,286046993.8,N
1506062755.1,286046994.1,N
1506062775.9,286046995.0,N
1506062795.7,286046996.9,N
1506062815.5,286046992.8,N
1506062835.4,286046990.9,Y
1506062855.2,286046992.7,P
1506062875.0,286046993.2,N
1506062875.9,286046993.2,N
1506062895.8,286046991.0,Y
1506062915.6,286046994.7,P
1506062935.4,286046991.9,P
1506062955.3,286046991.8,P
1506062975.1,286046996.5,N
1506062976.0,286046996.5,N
1506062995.8,286046998.6,N
1506063015.7,286046994.6,N
1506063035.5,286046990.4,Y
1506063055.3,286046995.6,P
1506063075.2,286046997.4,P
1506063095.9,286046996.1,P
1506063115.7,286046997.5,N
1506063135.6,286046995.3,Y
1506063155.4,286047001.7,P
1506063175.2,286047001.1,N
1506063195.1,286046998.1,N
1506063196.0,286046998.1,N
1506063215.8,286046998.5,N
1506063235.6,286047002.4,N
1506063255.5,286047002.5,N
1506063275.3,286047001.2,N
1506063295.1,286047001.6,N
1506063315.8,286047000.4,N
1506063335.7,286046997.7,N
1506063355.5,286046998.2,N
1506063375.3,286047000.4,N
1506063395.2,286046998.4,N
1506063415.9,286046999.5,N
1506063435.7,286047000.6,N
1506063455.6,286046998.9,N
1506063475.4,286047001.8,N
1506063495.2,286047003.1,N
1506063515.1,286047003.3,N
1506063516.0,286047003.3,N
1506063535.8,286047007.3,Y
1506063555.6,286047005.7,P
1506063575.5,286047004.9,N
1506063595.3,286047006.2,N
